Location: ?
(35.4996°N, 139.3166°E)
Time: 18:02:46
(UTC+00:00)

ADEOS II - Pass Details

Date: 18 April 2024
Orbit: 795 x 799 km, 98.7° (Epoch: 27 May)

Event Time Altitude Azimuth Distance (km) Brightness Sun altitude
Rises 17:26:58 0° 5° (N) 3,308 5.9 -29.2°
Reaches altitude 10° 17:29:22 10° 0° (N) 2,374 5.0 -28.8°
Enters shadow 17:33:05 39° 326° (NNW) 1,188 2.9 -28.3°
